Powrót do katalogu

USA 476

AktywnyMilitariaVLEO
NORAD 62545·PAYLOAD·🇺🇸 United States

Wystrzelony Jan 10, 2025 z Vandenberg Space Force Base

Loading…

Następne Przeloty (najbliższe 24 godziny)

TLE

NieaktualneSource: Mike McCants

Epoka: Aug 20, 2026, 21:03 UTC

1 62545U 25005P   26232.87762011 0.00000000  00000-0  00000-0 0    04
2 62545  70.0215 254.6360 0003000 171.0169 188.9830 14.96713464    05

Śledź USA 476 w czasie rzeczywistym z AllMySat

Download on the App Store